Regional Weather Roundup
Issued by NWS Boston, MA

Home | Current Version | Previous Version | Text Only | Print | Product List | Glossary On
Versions: 1 2 3 4 5 6 7 8 9 10 11 12 13 14 15 16 17 18 19 20 21 22 23 24 25 26 27 28 29 30 31 32 33 34 35 36 37 38 39 40 41 42 43 44 45 46 47 48 49 50
000
ASUS41 KBOX 011510
RWRBOX

REGIONAL WEATHER ROUNDUP
NATIONAL WEATHER SERVICE TAUNTON MA
1000 AM EST SUN FEB 01 2015

NOTE:  "FAIR" INDICATES FEW OR NO CLOUDS BELOW 12,000 FEET WITH NO
SIGNIFICANT WEATHER AND/OR OBSTRUCTIONS TO VISIBILITY.  THE FOLLOWING
OBSERVATION LOCATIONS DO NOT REPORT PRESENT WEATHER...PROVINCETOWN...
SMITHFIELD...BLOCK ISLAND...KEENE...AND OXFORD.

MAZALL-011600-
EASTERN MASSACHUSETTS

CITY           SKY/WX    TMP DP  RH WIND       PRES   REMARKS
BOSTON         MOSUNNY   20   9  62 W12       30.16R WCI   8
BEVERLY        SUNNY     19   6  57 W8        30.13S WCI   9
LAWRENCE       SUNNY     17   6  62 W7        30.15S WCI   8
BEDFORD        SUNNY     19   9  65 W6        30.14S WCI  11
BLUE HILL        N/A     18   9  68 W12       30.10R WCI   5
NORWOOD        SUNNY     20   8  60 W7        30.16S WCI  11
MARSHFIELD     SUNNY     25  10  54 W6        30.17S WCI  18
PLYMOUTH       SUNNY     21  10  62 W10       30.15S WCI  10
TAUNTON        SUNNY     24  11  57 W8        30.15S WCI  15
NEW BEDFORD    SUNNY     25  14  63 W15G21    30.15S WCI  13
$$

MAZALL-011600-
CAPE COD AND THE ISLANDS

CITY           SKY/WX    TMP DP  RH WIND       PRES   REMARKS
FALMOUTH       SUNNY     23  12  63 W13       30.15S WCI  11
HYANNIS        SUNNY     25  12  58 W10       30.13S WCI  15
CHATHAM        SUNNY     25  12  58 W9G20     30.14S WCI  15
PROVINCETOWN   SUNNY     25  12  58 W17G26    30.14S WCI  11
NANTUCKET      SUNNY     27  17  66 NW16      30.15S WCI  15
MARTHAS VNYRD  SUNNY     28  16  60 W15G22    30.16R WCI  16
$$

MAZALL-011600-
CENTRAL AND WESTERN MASSACHUSETTS

CITY           SKY/WX    TMP DP  RH WIND       PRES   REMARKS
WORCESTER      SUNNY     12   8  84 W7        30.08S WCI   1
FITCHBURG      SUNNY     19   7  59 NW3       30.14S
ORANGE         SUNNY      8  -1  66 CALM      30.13S
SPRINGFIELD    PTSUNNY   21  12  68 SW2       30.15S
WESTFIELD      MOSUNNY   23  13  65 S7        30.15S WCI  15
NORTH ADAMS    CLOUDY    19  12  74 W7        30.14R WCI  10
PITTSFIELD     CLOUDY    17  13  84 W6        30.09R WCI   9
$$

RIZALL-011600-
RHODE ISLAND

CITY           SKY/WX    TMP DP  RH WIND       PRES   REMARKS
PROVIDENCE     MOSUNNY   25  12  58 W8        30.17S WCI  16
NEWPORT        SUNNY     26  15  63 W10G20    30.16S WCI  16
BLOCK ISLAND   PTSUNNY   28  19  69 W13G21    30.17R WCI  18
SMITHFIELD     SUNNY     23  10  58 W13       30.12S WCI  11
WESTERLY       PTSUNNY   25  14  63 W8G17     30.19S WCI  16
$$

CTZALL-011600-
CONNECTICUT

CITY           SKY/WX    TMP DP  RH WIND       PRES   REMARKS
BRADLEY INTL   PTSUNNY   22  11  62 SW7       30.17S WCI  13
HARTFORD       FAIR      20  10  65 S3        30.20S
BRIDGEPORT     SUNNY     27  15  61 W5        30.21S WCI  22
DANBURY        PTSUNNY   23  11  60 W6        30.18F WCI  16
GROTON         CLOUDY    23  14  68 W10       30.20R WCI  12
NEW HAVEN      PTSUNNY   23  14  68 CALM      30.20S
CHESTER        FLURRIES  25  14  63 W6        30.18R WCI  18
MERIDEN        CLOUDY    19   9  65 CALM      30.20S
WILLIMANTIC    SUNNY     23  10  57 VRB5      30.18S WCI  17
OXFORD         MOSUNNY   21   7  53 W5        30.16S WCI  15
$$

MEZ002-015-021-024-NHZ003-005-008-011-012-014-VTZ005-008-011600-
NORTHERN NEW ENGLAND

CITY           SKY/WX    TMP DP  RH WIND       PRES   REMARKS
PORTLAND ME    MOSUNNY   15   3  59 W7        30.07R WCI   5
BANGOR ME      SUNNY     11  -3  53 NW16G25   29.99R WCI  -6
CONCORD NH     SUNNY     18   4  54 NW17G26   30.11S WCI   3
MANCHESTER NH  SUNNY     15   3  59 CALM      30.12R
NASHUA NH      SUNNY     21   6  52 NW10      30.14S WCI  10
PORTSMOUTH NH  MOSUNNY   19   3  51 W14G23    30.10R WCI   5
JAFFREY NH     SUNNY     19   7  59 VRB7      30.07S WCI  10
KEENE NH       SUNNY      7  -2  66 CALM      30.14S
BURLINGTON VT  PTSUNNY    8  -2  63 N14       30.26R WCI  -8
MT. WASHINGTON ICE FOG  -15 -15 100 NW74G86     N/A  VSB 1/8 WCI -57
$$

NYZ052-076-011600-
EASTERN NEW YORK

CITY           SKY/WX    TMP DP  RH WIND       PRES   REMARKS
ALBANY         MOSUNNY   21  11  65 N5        30.20R WCI  15
NEW YORK CITY  PTSUNNY   31  19  61 NW10      30.22S WCI  22
$$

ANZALL-011600-
MARINE OBSERVATIONS

STATION/POSITION TIME  TEMP    WIND        PRES    VSBY  WAVE
                       AIR SEA DIR/SP/G                  HT/PER
                 (UTC) (F)     (DEG/KT/KT) (MB)    (MI)  (FT/S)
BOSTON BUOY      1450   23 40  280/ 17/ 23 1020.6R         3/ 4
BUZZARDS BAY     1400          270/ 23/ 26 1021.5R
NANTUCKET SOUND  NOT AVBL
MASS BAY-STELLWA 1404   22 40  280/ 17/ 21   N/A    1 3/8  3/ 4
ISLE OF SHOALS   1500   18     290/ 25/ 28 1018.1F
S OF BLOCK IS    1408      43                N/A           5/ 5
$$

......................KEY.........................
  SKY/WX - SKY CONDITION/PRESENT WEATHER
  TMP    - TEMPERATURE IN FAHRENHEIT
  DWPT   - DEWPOINT IN FAHRENHEIT
  RH     - RELATIVE HUMIDITY IN PERCENT
  WIND   - DIRECTION AND SPEED IN MPH
  PRES   - MEAN SEA LEVEL PRESSURE IN INCHES OF HG
  WCI    - WIND CHILL INDEX
  VSB    - VISIBILITY IN MILES
  HX     - HEAT INDEX
  TC     - TEMPERATURE IN CELSIUS
  VRB    - VARIABLE WIND DIRECTION
  N/A    - NOT AVAILABLE



USA.gov is the U.S. government's official web portal to all federal, state and local government web resources and services.